Starlink 5757

operational
NORAD ID: 55580 Int'l Des: 2023-020 Owner: SPXS Country: US Constellation: starlink
LEOCIRCULAR

Über Starlink 5757

Beschreibung wird geladen...

Live-Position

3D-Globus wird geladen...

Nächste Überflüge

Höhenverlauf

Altitude vs Time

uPlot chart will show altitude changes over time

Zweizeiliger Elementsatz

1 55580U 23020M 25304.54080413 -.00000053 00000-0 11185-4 0 9998
2 55580 43.0047 320.2664 0001209 269.4401 90.6303 15.02528352149798
Epoch: 31. Okt. 2025 • Age: 26 hours

Aktueller Status

Höhe 560.5 km
Geschwindigkeit 7.59 km/s
Subsatellitenpunkt 31.40°N, 93.01°E
Startdatum 12. Feb. 2023
Alter 2.7 years
Typ internet

Technische Details

Klassifizierung Payload
Masse 305.00 kg
Trockenmasse 290.00 kg
Gesamtmasse 305.00 kg
Länge 0.20 m
Durchmesser 2.80 m
Spannweite 9.00 m
Form Box + pan
Hersteller SPXS
Bus-Typ Starlink
Phasenstatus In Orbit
Besitzer/Staat SPXS/US

Große Konstellationen

Loading constellations...